RYR9066 LOWW-LIBD

Flight info

Callsign RYR9066
Flight time 1h 9m
Altitude 37000
Route STEIN DCT NOHAT DCT KOPRY DCT DIXUM DCT ORAKA DCT AIOSA DCT BANAV
Aircraft A320/M-SDE2FGHIJ1RWY/SB1

Departure

Time 2026-05-06 07:40
Airport Vienna International Airport (LOWW)

Arrival

Time 2026-05-06 08:50
Airport Bari Karol Wojtyła International Airport (LIBD)
Time Latitude Longitude Altitude Speed Heading
2026-05-06 07:05 48.12122 16.55688 609 ft 0 kts 116°
2026-05-06 07:30 48.12122 16.55686 609 ft 2 kts 116°
2026-05-06 07:31 48.12132 16.55651 625 ft 4 kts 109°
2026-05-06 07:31 48.12142 16.55614 609 ft 4 kts 122°
2026-05-06 07:31 48.12151 16.55597 625 ft 0 kts 146°
2026-05-06 07:34 48.12149 16.55598 610 ft 1 kts 150°
2026-05-06 07:34 48.12135 16.55597 623 ft 3 kts 192°
2026-05-06 07:35 48.12108 16.55578 610 ft 5 kts 206°
2026-05-06 07:35 48.12066 16.55547 610 ft 8 kts 206°
2026-05-06 07:35 48.12009 16.55506 622 ft 10 kts 206°
2026-05-06 07:35 48.11937 16.55454 614 ft 12 kts 204°
2026-05-06 07:36 48.11851 16.55426 609 ft 11 kts 191°
2026-05-06 07:36 48.11792 16.55486 612 ft 12 kts 117°
2026-05-06 07:36 48.11751 16.55614 617 ft 15 kts 116°
2026-05-06 07:36 48.11701 16.55764 621 ft 17 kts 116°
2026-05-06 07:37 48.11646 16.55935 611 ft 19 kts 115°
2026-05-06 07:37 48.11584 16.56126 615 ft 21 kts 116°
2026-05-06 07:37 48.11515 16.56336 617 ft 23 kts 116°
2026-05-06 07:37 48.11441 16.56563 618 ft 25 kts 116°
2026-05-06 07:38 48.11361 16.56805 613 ft 27 kts 116°
2026-05-06 07:38 48.11282 16.57049 610 ft 18 kts 116°
2026-05-06 07:38 48.11234 16.57199 618 ft 13 kts 116°
2026-05-06 07:38 48.11170 16.57228 610 ft 12 kts 202°
2026-05-06 07:39 48.11088 16.57170 622 ft 14 kts 206°
2026-05-06 07:39 48.11053 16.57101 610 ft 8 kts 292°
2026-05-06 07:39 48.11120 16.56900 613 ft 51 kts 295°
2026-05-06 07:39 48.11377 16.56110 618 ft 115 kts 296°
2026-05-06 07:40 48.11798 16.54801 626 ft 162 kts 294°
2026-05-06 07:40 48.12189 16.53239 1099 ft 160 kts 271°
2026-05-06 07:40 48.11937 16.51654 1614 ft 162 kts 234°
2026-05-06 07:40 48.11055 16.50464 1866 ft 182 kts 213°
2026-05-06 07:41 48.09949 16.49346 2198 ft 202 kts 211°
2026-05-06 07:41 48.08703 16.48113 2558 ft 227 kts 210°
2026-05-06 07:41 48.07160 16.47317 3002 ft 247 kts 181°
2026-05-06 07:41 48.05427 16.47576 3673 ft 258 kts 172°
2026-05-06 07:42 48.03609 16.47948 4599 ft 263 kts 172°
2026-05-06 07:42 48.01812 16.48294 5500 ft 265 kts 173°
2026-05-06 07:42 47.99969 16.48639 6411 ft 268 kts 173°
2026-05-06 07:42 47.98080 16.49008 7290 ft 271 kts 173°
2026-05-06 07:43 47.96205 16.49384 8167 ft 273 kts 173°
2026-05-06 07:43 47.94309 16.49767 9044 ft 275 kts 173°
2026-05-06 07:43 47.92403 16.50150 9895 ft 278 kts 174°
2026-05-06 07:43 47.90453 16.50538 10400 ft 293 kts 174°
2026-05-06 07:44 47.88352 16.50948 10624 ft 315 kts 174°
2026-05-06 07:44 47.86134 16.51385 11100 ft 326 kts 175°
2026-05-06 07:44 47.83866 16.51841 11778 ft 331 kts 175°
2026-05-06 07:44 47.81564 16.52303 12483 ft 335 kts 176°
2026-05-06 07:45 47.79241 16.52764 13176 ft 339 kts 176°
2026-05-06 07:45 47.76913 16.53226 13827 ft 344 kts 176°
2026-05-06 07:45 47.74529 16.53696 14430 ft 347 kts 176°
2026-05-06 07:45 47.72121 16.54175 15036 ft 351 kts 176°
2026-05-06 07:46 47.69687 16.54659 15620 ft 355 kts 176°
2026-05-06 07:46 47.67228 16.55147 16204 ft 358 kts 176°
2026-05-06 07:46 47.64745 16.55640 16813 ft 361 kts 176°
2026-05-06 07:46 47.62239 16.56137 17412 ft 365 kts 176°
2026-05-06 07:47 47.59712 16.56637 18013 ft 368 kts 176°
2026-05-06 07:47 47.57158 16.57138 18548 ft 372 kts 176°
2026-05-06 07:47 47.54580 16.57644 19105 ft 375 kts 176°
2026-05-06 07:47 47.51977 16.58152 19692 ft 378 kts 176°
2026-05-06 07:48 47.49363 16.58663 20296 ft 380 kts 176°
2026-05-06 07:48 47.46732 16.59182 20895 ft 383 kts 176°
2026-05-06 07:48 47.44085 16.59705 21449 ft 385 kts 176°
2026-05-06 07:48 47.41416 16.60038 21985 ft 386 kts 181°
2026-05-06 07:49 47.38724 16.60156 22507 ft 388 kts 181°
2026-05-06 07:49 47.36014 16.60270 23041 ft 391 kts 181°
2026-05-06 07:49 47.33290 16.60384 23559 ft 394 kts 181°
2026-05-06 07:49 47.30537 16.60503 23982 ft 396 kts 181°
2026-05-06 07:50 47.27774 16.60621 24411 ft 398 kts 181°
2026-05-06 07:50 47.25002 16.60739 24832 ft 400 kts 181°
2026-05-06 07:50 47.22211 16.60858 25234 ft 402 kts 181°
2026-05-06 07:50 47.19395 16.60982 25599 ft 406 kts 182°
2026-05-06 07:51 47.16563 16.61112 25982 ft 408 kts 182°
2026-05-06 07:51 47.13715 16.61243 26359 ft 411 kts 182°
2026-05-06 07:51 47.10850 16.61373 26735 ft 413 kts 182°
2026-05-06 07:51 47.07970 16.61502 27115 ft 415 kts 182°
2026-05-06 07:52 47.05080 16.61626 27495 ft 417 kts 182°
2026-05-06 07:52 47.02168 16.61746 27867 ft 420 kts 182°
2026-05-06 07:52 46.99240 16.61866 28221 ft 422 kts 182°
2026-05-06 07:52 46.96293 16.61987 28549 ft 425 kts 182°
2026-05-06 07:53 46.93321 16.62111 28914 ft 428 kts 182°
2026-05-06 07:53 46.90338 16.62239 29262 ft 430 kts 182°
2026-05-06 07:53 46.87347 16.62367 29611 ft 432 kts 182°
2026-05-06 07:53 46.84333 16.62497 29958 ft 435 kts 181°
2026-05-06 07:54 46.81308 16.63018 30246 ft 442 kts 172°
2026-05-06 07:54 46.78372 16.64259 30594 ft 447 kts 163°
2026-05-06 07:54 46.75487 16.65973 31000 ft 447 kts 162°
2026-05-06 07:54 46.72607 16.67697 31401 ft 447 kts 162°
2026-05-06 07:55 46.69728 16.69414 31796 ft 447 kts 162°
2026-05-06 07:55 46.66850 16.71126 32183 ft 447 kts 163°
2026-05-06 07:55 46.63970 16.72830 32592 ft 447 kts 163°
2026-05-06 07:55 46.61091 16.74530 32995 ft 447 kts 163°
2026-05-06 07:56 46.58205 16.76230 33396 ft 446 kts 163°
2026-05-06 07:56 46.55320 16.77924 33774 ft 446 kts 164°
2026-05-06 07:56 46.52435 16.79621 34054 ft 449 kts 163°
2026-05-06 07:56 46.49546 16.81324 34360 ft 449 kts 163°
2026-05-06 07:57 46.46655 16.83031 34730 ft 448 kts 163°
2026-05-06 07:57 46.43774 16.84727 35131 ft 446 kts 163°
2026-05-06 07:57 46.40906 16.86410 35524 ft 443 kts 163°
2026-05-06 07:57 46.38053 16.88080 35925 ft 441 kts 163°
2026-05-06 07:58 46.35216 16.89738 36309 ft 439 kts 163°
2026-05-06 07:58 46.32395 16.91389 36656 ft 436 kts 163°
2026-05-06 07:58 46.29581 16.93034 36902 ft 436 kts 163°
2026-05-06 07:58 46.26763 16.94679 36949 ft 438 kts 164°
2026-05-06 07:59 46.20918 16.96567 36945 ft 427 kts 181°
2026-05-06 07:59 46.15028 16.97082 36953 ft 427 kts 181°
2026-05-06 08:00 46.09100 16.97617 36948 ft 427 kts 181°
2026-05-06 08:00 46.03166 16.98156 36956 ft 428 kts 181°
2026-05-06 08:01 45.97227 16.98690 36961 ft 428 kts 181°
2026-05-06 08:01 45.91275 16.99223 36969 ft 428 kts 181°
2026-05-06 08:02 45.85318 16.99757 36959 ft 429 kts 181°
2026-05-06 08:02 45.79363 17.00286 36971 ft 429 kts 181°
2026-05-06 08:03 45.73401 17.00812 36978 ft 429 kts 181°
2026-05-06 08:03 45.67448 17.01344 36983 ft 428 kts 181°
2026-05-06 08:04 45.61505 17.01874 36990 ft 427 kts 181°
2026-05-06 08:04 45.55574 17.02394 36959 ft 427 kts 181°
2026-05-06 08:05 45.49640 17.02915 36963 ft 428 kts 181°
2026-05-06 08:05 45.43694 17.03446 36968 ft 429 kts 181°
2026-05-06 08:06 45.37737 17.03971 36976 ft 429 kts 181°
2026-05-06 08:06 45.31780 17.04493 36982 ft 429 kts 181°
2026-05-06 08:07 45.25821 17.05011 36986 ft 429 kts 181°
2026-05-06 08:07 45.21478 17.05385 36996 ft 428 kts 181°
2026-05-06 08:08 45.15536 17.05899 36998 ft 427 kts 181°
2026-05-06 08:08 45.09600 17.06418 36997 ft 427 kts 181°
2026-05-06 08:09 45.03679 17.06935 36994 ft 426 kts 182°
2026-05-06 08:09 44.97765 17.07444 36974 ft 426 kts 181°
2026-05-06 08:10 44.91831 17.07950 36975 ft 427 kts 181°
2026-05-06 08:10 44.85894 17.08467 36971 ft 428 kts 181°
2026-05-06 08:11 44.79962 17.08994 36984 ft 427 kts 181°
2026-05-06 08:11 44.74075 17.09494 36988 ft 427 kts 181°
2026-05-06 08:12 44.68149 17.09993 36993 ft 427 kts 181°
2026-05-06 08:12 44.62223 17.10490 36995 ft 426 kts 181°
2026-05-06 08:13 44.57300 17.10920 37000 ft 426 kts 181°
2026-05-06 08:13 44.51337 17.11439 37007 ft 426 kts 182°
2026-05-06 08:14 44.45459 17.11933 37002 ft 426 kts 181°
2026-05-06 08:14 44.39538 17.12427 37012 ft 427 kts 181°
2026-05-06 08:15 44.33604 17.12931 37016 ft 427 kts 182°
2026-05-06 08:15 44.27667 17.13429 37018 ft 427 kts 181°
2026-05-06 08:16 44.21724 17.13939 37023 ft 428 kts 181°
2026-05-06 08:16 44.15780 17.14442 37035 ft 428 kts 181°
2026-05-06 08:17 44.09830 17.14950 37036 ft 429 kts 181°
2026-05-06 08:17 44.03873 17.15441 37031 ft 429 kts 181°
2026-05-06 08:18 43.97915 17.15935 37040 ft 429 kts 181°
2026-05-06 08:18 43.91941 17.16429 37049 ft 430 kts 181°
2026-05-06 08:19 43.85969 17.16930 37028 ft 430 kts 181°
2026-05-06 08:19 43.79980 17.17424 37035 ft 432 kts 181°
2026-05-06 08:20 43.73972 17.17929 37042 ft 434 kts 181°
2026-05-06 08:20 43.67945 17.18425 37048 ft 434 kts 181°
2026-05-06 08:21 43.61954 17.18917 37056 ft 434 kts 181°
2026-05-06 08:21 43.55916 17.19414 37065 ft 435 kts 181°
2026-05-06 08:22 43.49872 17.19921 37075 ft 435 kts 181°
2026-05-06 08:22 43.43841 17.20125 37080 ft 433 kts 185°
2026-05-06 08:23 43.37821 17.20029 37087 ft 432 kts 185°
2026-05-06 08:23 43.31805 17.19948 37083 ft 433 kts 185°
2026-05-06 08:24 43.25778 17.19945 37078 ft 433 kts 184°
2026-05-06 08:24 43.19748 17.19963 37078 ft 433 kts 184°
2026-05-06 08:25 43.13726 17.19989 37083 ft 433 kts 184°
2026-05-06 08:25 43.07698 17.20007 37084 ft 433 kts 184°
2026-05-06 08:26 43.01675 17.20007 37078 ft 433 kts 184°
2026-05-06 08:26 42.95689 17.20010 37084 ft 433 kts 184°
2026-05-06 08:27 42.89664 17.20024 37073 ft 432 kts 184°
2026-05-06 08:27 42.83668 17.20033 36583 ft 431 kts 184°
2026-05-06 08:28 42.80652 17.20034 35749 ft 435 kts 184°
2026-05-06 08:28 42.77615 17.20034 34975 ft 438 kts 184°
2026-05-06 08:28 42.74561 17.20034 34239 ft 440 kts 184°
2026-05-06 08:28 42.71494 17.20035 33413 ft 442 kts 184°
2026-05-06 08:29 42.68416 17.20038 32538 ft 444 kts 184°
2026-05-06 08:29 42.65316 17.20040 31637 ft 446 kts 184°
2026-05-06 08:29 42.62204 17.20044 30734 ft 449 kts 184°
2026-05-06 08:29 42.59066 17.20050 29744 ft 452 kts 184°
2026-05-06 08:30 42.55912 17.20051 28612 ft 455 kts 184°
2026-05-06 08:30 42.52737 17.20067 27593 ft 457 kts 183°
2026-05-06 08:30 42.49607 17.20108 27299 ft 440 kts 188°
2026-05-06 08:30 42.46642 17.19526 26917 ft 425 kts 194°
2026-05-06 08:31 42.43756 17.18818 26358 ft 419 kts 195°
2026-05-06 08:31 42.40906 17.18096 25776 ft 415 kts 195°
2026-05-06 08:31 42.38082 17.17370 25197 ft 412 kts 195°
2026-05-06 08:31 42.35277 17.16647 24620 ft 408 kts 195°
2026-05-06 08:32 42.32496 17.15933 24054 ft 406 kts 195°
2026-05-06 08:32 42.29732 17.15228 23548 ft 402 kts 195°
2026-05-06 08:32 42.26997 17.14542 22970 ft 398 kts 195°
2026-05-06 08:32 42.24324 17.13879 22528 ft 393 kts 194°
2026-05-06 08:33 42.21646 17.13218 22062 ft 389 kts 194°
2026-05-06 08:33 42.18995 17.12560 21596 ft 386 kts 194°
2026-05-06 08:33 42.16363 17.11908 21125 ft 383 kts 194°
2026-05-06 08:33 42.13748 17.11260 20635 ft 381 kts 194°
2026-05-06 08:34 42.11152 17.10613 20152 ft 378 kts 194°
2026-05-06 08:34 42.06004 17.09323 19168 ft 374 kts 194°
2026-05-06 08:34 42.03454 17.08682 18676 ft 372 kts 194°
2026-05-06 08:35 42.00916 17.08048 18158 ft 370 kts 194°
2026-05-06 08:35 41.98391 17.07424 17638 ft 367 kts 194°
2026-05-06 08:35 41.95907 17.06811 17327 ft 358 kts 194°
2026-05-06 08:35 41.93468 17.06207 16655 ft 359 kts 193°
2026-05-06 08:36 41.91006 17.05591 16028 ft 360 kts 193°
2026-05-06 08:36 41.88549 17.04979 15528 ft 357 kts 193°
2026-05-06 08:36 41.86121 17.04376 15027 ft 353 kts 193°
2026-05-06 08:36 41.83695 17.03775 14316 ft 357 kts 192°
2026-05-06 08:37 41.81254 17.03176 13757 ft 355 kts 192°
2026-05-06 08:37 41.78844 17.02584 13195 ft 351 kts 192°
2026-05-06 08:37 41.76455 17.01996 12659 ft 347 kts 192°
2026-05-06 08:37 41.74092 17.01414 12119 ft 344 kts 192°
2026-05-06 08:38 41.71723 17.01050 11589 ft 342 kts 184°
2026-05-06 08:38 41.69352 17.00939 11079 ft 339 kts 184°
2026-05-06 08:38 41.67004 17.00831 10563 ft 336 kts 184°
2026-05-06 08:38 41.64684 17.00724 10273 ft 327 kts 184°
2026-05-06 08:39 41.62470 17.00620 10266 ft 310 kts 184°
2026-05-06 08:39 41.60363 17.00517 10199 ft 297 kts 184°
2026-05-06 08:39 41.58329 17.00418 10063 ft 288 kts 184°
2026-05-06 08:39 41.56346 17.00319 9792 ft 284 kts 184°
2026-05-06 08:40 41.54381 17.00224 9444 ft 282 kts 184°
2026-05-06 08:40 41.52430 17.00129 9092 ft 281 kts 185°
2026-05-06 08:40 41.50481 17.00040 8745 ft 280 kts 185°
2026-05-06 08:40 41.48535 16.99949 8390 ft 279 kts 185°
2026-05-06 08:41 41.46605 16.99858 8088 ft 278 kts 185°
2026-05-06 08:41 41.44677 16.99769 7787 ft 277 kts 185°
2026-05-06 08:41 41.42756 16.99679 7449 ft 275 kts 185°
2026-05-06 08:41 41.40867 16.99588 7076 ft 264 kts 185°
2026-05-06 08:42 41.39093 16.99508 6953 ft 246 kts 185°
2026-05-06 08:42 41.37443 16.99435 6837 ft 229 kts 186°
2026-05-06 08:42 41.35900 16.99364 6709 ft 215 kts 186°
2026-05-06 08:42 41.34408 16.99291 6470 ft 216 kts 186°
2026-05-06 08:43 41.32901 16.99215 6071 ft 215 kts 186°
2026-05-06 08:43 41.31439 16.99145 5714 ft 212 kts 186°
2026-05-06 08:43 41.29986 16.99075 5547 ft 205 kts 186°
2026-05-06 08:43 41.28587 16.99009 5415 ft 196 kts 187°
2026-05-06 08:44 41.27245 16.98944 5181 ft 192 kts 187°
2026-05-06 08:44 41.25914 16.98877 4893 ft 191 kts 186°
2026-05-06 08:44 41.24594 16.98812 4598 ft 189 kts 186°
2026-05-06 08:44 41.23283 16.98748 4307 ft 187 kts 186°
2026-05-06 08:45 41.21992 16.98686 4019 ft 183 kts 186°
2026-05-06 08:45 41.20800 16.98269 3702 ft 176 kts 211°
2026-05-06 08:45 41.19893 16.97211 3384 ft 175 kts 235°
2026-05-06 08:45 41.19391 16.95741 3099 ft 175 kts 249°
2026-05-06 08:46 41.18975 16.94238 2851 ft 172 kts 248°
2026-05-06 08:46 41.18560 16.92757 2613 ft 170 kts 248°
2026-05-06 08:46 41.18149 16.91293 2373 ft 168 kts 247°
2026-05-06 08:46 41.17740 16.89847 2131 ft 167 kts 247°
2026-05-06 08:47 41.17337 16.88411 1900 ft 165 kts 247°
2026-05-06 08:47 41.16936 16.86989 1680 ft 163 kts 246°
2026-05-06 08:47 41.16545 16.85603 1446 ft 157 kts 246°
2026-05-06 08:47 41.16180 16.84300 1258 ft 144 kts 246°
2026-05-06 08:48 41.15836 16.83070 1063 ft 139 kts 246°
2026-05-06 08:48 41.15499 16.81877 844 ft 138 kts 246°
2026-05-06 08:48 41.15165 16.80696 692 ft 136 kts 246°
2026-05-06 08:48 41.14838 16.79517 487 ft 137 kts 248°
2026-05-06 08:49 41.14490 16.78324 319 ft 139 kts 247°
2026-05-06 08:49 41.14153 16.77129 133 ft 135 kts 247°
2026-05-06 08:49 41.13878 16.76150 132 ft 89 kts 249°
2026-05-06 08:49 41.13716 16.75582 140 ft 50 kts 249°
2026-05-06 08:50 41.13606 16.75191 138 ft 44 kts 249°
2026-05-06 08:50 41.13519 16.74879 138 ft 22 kts 250°
2026-05-06 08:50 41.13449 16.74732 141 ft 15 kts 182°
2026-05-06 08:50 41.13390 16.74784 146 ft 9 kts 128°
2026-05-06 08:51 41.13356 16.74861 147 ft 10 kts 118°
2026-05-06 08:51 41.13353 16.74963 148 ft 13 kts 71°
2026-05-06 08:51 41.13387 16.75084 148 ft 15 kts 69°
2026-05-06 08:51 41.13432 16.75240 143 ft 21 kts 69°
2026-05-06 08:52 41.13489 16.75436 143 ft 24 kts 69°
2026-05-06 08:52 41.13548 16.75645 138 ft 15 kts 70°
2026-05-06 08:52 41.13584 16.75774 138 ft 16 kts 70°
2026-05-06 08:52 41.13628 16.75928 136 ft 18 kts 70°
2026-05-06 08:53 41.13661 16.76049 136 ft 15 kts 69°
2026-05-06 08:53 41.13702 16.76190 136 ft 18 kts 69°
2026-05-06 08:53 41.13748 16.76350 135 ft 20 kts 69°
2026-05-06 08:53 41.13787 16.76485 134 ft 10 kts 73°
2026-05-06 08:54 41.13757 16.76554 136 ft 10 kts 153°
2026-05-06 08:54 41.13693 16.76547 136 ft 11 kts 204°
2026-05-06 08:54 41.13643 16.76481 136 ft 11 kts 246°
2026-05-06 08:54 41.13620 16.76430 136 ft 4 kts 207°
2026-05-06 08:55 41.13591 16.76440 136 ft 5 kts 157°
2026-05-06 08:55 41.13563 16.76454 136 ft 2 kts 159°
2026-05-06 08:55 41.13561 16.76455 136 ft 0 kts 159°